Walvis Bay Airport

Jump to: basic info | weather | frequencies | runways | comments

Related pages: nearby airports | nearby navaids | notams | map

Basic information (top)

Codes: WVB FYWB
Location: lon -22.979900, lat 14.645300, elev 299 ft / 91 m msl
Status: medium_airport
Scheduled airline service: no
Links: Wikipedia Mobile

Weather (top)

Current conditions (rec'd 2014/09/18 19:00Z):

FYWB 181900Z AUTO 20015KT //// // ////// 14/05 Q1020

Airport forecast (rec'd 2014/09/18 06:00Z):

TAF FYWB 180400Z 1806/1912 15006KT 0500 FG OVC005 
      BECMG 1806/1808 16013KT CAVOK 
      BECMG 1812/1814 20013G24KT 
      BECMG 1821/1823 18009KT 9999 BKN010 
      BECMG 1904/1906 BKN012 
     FM190900 22013KT CAVOK 

Frequencies (top)

Verify before use: may be inaccurate or out of date.

APP: 122.5 MHz (APP)
TWR: 122.5 MHz (TWR)

Runways (top)

09/27: 7,001 x 98 ft (2,134 x 30 m) — paved — lighted

Latest comments (top)

No comments yet for Walvis Bay Airport

More... (top)

See also NOTAMs and nearby airports and navaids, or visit the Walvis Bay Airport page at the main OurAirports website..